Temperature
21 21 20 20 20 21 23 24 26 25 25 25 25 24 23 23 22 20 20 20 21 21 20 20 20 20 20 20 20 20 20 20 20 20 20 20 20 20 19 19 19 19 19 19 19 19 19 19 19
21 21 20 20 21 22 23 25 25 26 25 25 25 24 23 22 21 20 20 21 21 21 21 20 20 20 20 20 20 20 20 20 20 20 20 20 20 19 19 19 19 19 19 19 19 19 19 19 19
21 21 20 20 22 22 24 25 26 26 26 26 25 24 23 22 21 21 21 21 21 21 21 21 20 20 20 20 20 20 20 20 20 20 20 20 20 19 19 19 19 19 19 19 19 19 19 19 19
21 21 21 21 23 24 25 25 26 26 26 26 25 24 23 22 22 21 21 21 21 21 21 21 21 20 20 20 20 20 20 20 20 20 20 20 19 19 19 19 19 19 19 19 19 19 19 19 19
22 22 21 22 24 25 26 27 26 26 26 25 24 23 22 22 22 22 21 21 21 21 21 21 21 21 20 20 20 20 20 20 20 20 20 19 19 19 19 19 19 19 19 19 19 19 19 19 19
23 21 22 23 25 26 27 27 26 26 25 24 24 22 22 22 22 22 22 21 21 21 21 21 21 21 20 20 20 20 20 20 20 20 20 20 19 19 19 19 19 19 19 19 19 19 19 19 19
22 22 23 24 25 26 27 27 26 26 25 25 24 22 22 22 22 22 22 22 21 21 21 21 21 20 20 20 20 20 20 20 20 20 19 19 19 19 19 19 19 19 19 19 19 19 19 19 19
24 22 24 24 25 26 27 28 27 26 26 25 25 23 22 22 22 22 22 22 21 21 21 21 21 21 20 20 20 20 20 20 20 19 19 19 19 19 19 19 19 19 19 19 19 19 19 19 19
25 23 23 25 26 27 27 27 27 27 26 25 25 24 23 22 22 22 21 21 21 21 21 21 21 21 20 20 20 20 20 20 19 19 19 19 19 19 19 19 19 19 19 19 19 19 19 19 19
25 23 25 27 27 27 28 28 27 26 25 25 24 24 23 22 22 22 21 21 21 21 21 21 21 20 20 20 20 20 20 20 19 19 19 19 19 19 19 19 19 19 19 19 19 19 19 19 19
26 25 27 28 28 28 28 28 27 26 24 24 24 23 23 22 22 22 22 22 21 21 21 21 21 21 20 20 20 20 20 20 20 20 19 19 19 19 19 19 19 19 19 19 19 19 19 19 19
27 27 28 29 29 29 28 28 27 26 25 25 25 24 23 23 22 22 22 22 21 21 21 21 21 21 20 20 20 20 20 20 20 20 19 19 19 19 19 19 19 19 19 19 19 19 19 19 19
28 28 29 29 29 29 28 28 27 27 26 25 25 24 24 23 23 23 23 22 22 21 21 21 21 21 21 20 20 20 20 20 20 20 19 19 19 19 19 19 19 19 19 19 19 19 19 19 19
28 29 29 29 29 29 28 27 27 26 26 25 24 24 24 23 23 23 22 22 22 22 21 21 21 21 21 21 20 20 20 20 20 20 19 19 19 19 19 19 19 19 19 19 19 19 19 19 19
29 27 28 28 29 28 28 26 26 26 25 25 24 24 24 24 23 23 23 23 22 22 22 21 21 21 21 20 20 20 20 20 20 20 19 19 19 19 19 19 19 19 19 19 19 19 19 19 19
27 26 26 28 28 28 27 25 26 26 26 25 25 24 23 23 23 23 23 23 23 22 22 21 21 21 21 21 20 20 20 20 20 19 19 19 19 19 19 19 19 19 19 19 19 19 19 19 19
26 25 26 27 28 28 26 25 26 26 26 25 25 24 24 23 23 23 23 23 23 23 22 22 21 21 21 21 20 20 20 20 20 19 19 19 19 19 19 19 19 19 19 19 19 19 19 19 18
25 26 26 27 28 28 26 25 26 26 26 25 25 24 24 23 23 23 23 23 23 23 22 22 21 21 21 21 20 20 20 20 19 19 19 19 19 19 19 19 19 19 19 18 18 19 18 18 19
27 27 26 27 28 27 26 25 26 26 26 25 25 25 24 24 24 24 23 23 23 23 22 22 22 21 21 21 20 20 20 20 19 19 19 19 19 19 19 19 19 19 19 19 19 18 18 18 18
27 27 27 27 28 27 25 25 25 26 25 25 25 25 25 24 23 23 23 23 23 23 22 22 21 21 21 21 21 20 20 19 19 19 19 19 19 19 19 19 19 19 19 19 18 18 18 18 18
27 27 27 27 28 27 26 25 24 25 25 25 25 25 25 24 23 23 23 23 23 23 22 22 22 21 21 21 20 20 20 20 19 19 19 19 19 19 19 19 19 18 18 18 18 18 18 18 18
27 28 29 28 26 25 26 24 24 24 24 24 25 25 24 24 23 23 23 23 23 22 22 22 22 21 21 21 20 20 20 20 19 19 19 19 19 19 19 19 19 18 18 18 18 18 18 18 18
28 28 28 28 26 24 25 24 23 23 23 24 24 24 24 24 24 23 23 23 23 22 22 22 22 21 21 21 20 20 20 20 19 19 19 19 19 19 19 19 19 18 18 18 18 18 18 18 18
29 28 26 24 23 23 24 24 23 23 24 24 24 24 25 24 24 24 23 23 22 22 22 22 21 21 21 20 20 20 20 19 19 19 19 19 19 19 19 19 19 18 18 18 18 18 18 18 18
28 24 23 24 22 23 23 24 23 24 25 24 24 24 25 24 24 23 23 22 22 22 21 21 21 21 20 20 20 20 20 19 19 19 19 19 19 19 18 18 18 18 18 18 18 18 18 17 17
26 24 23 24 23 23 23 24 24 25 25 26 25 25 24 24 24 23 23 23 22 22 22 21 21 21 20 20 20 20 19 19 19 19 19 19 18 18 18 18 18 18 18 18 18 17 17 17 17
27 24 23 22 23 23 23 24 24 25 24 24 25 24 24 24 23 23 23 23 22 22 22 21 21 21 20 20 20 19 19 19 19 19 18 18 18 18 18 18 18 18 18 17 17 17 17 17 17
27 25 22 22 22 22 23 23 23 24 23 24 23 24 24 24 23 23 23 22 22 22 21 21 21 21 20 20 19 19 19 19 19 18 18 18 18 18 18 18 18 18 17 17 17 17 17 17 17
26 25 22 20 21 21 22 22 24 23 23 22 23 24 24 24 23 22 22 22 22 21 21 21 21 20 20 20 19 19 19 19 18 18 18 18 18 18 18 18 17 17 17 17 17 17 17 16 16
26 25 22 22 22 20 21 22 25 23 23 23 23 24 24 24 23 23 23 22 21 21 21 21 20 20 20 20 19 19 19 18 18 18 18 18 18 17 17 17 17 17 17 16 16 16 16 16 16
Wind_Speed
11 9 4 1 1 3 3 2 5 7 6 7 10 10 9 6 4 6 4 10 11 10 10 12 12 12 12 12 12 12 12 11 12 13 13 14 14 14 13 13 13 13 12 12 11 11 11 10 11
8 6 2 0 3 4 2 3 9 9 9 10 11 11 9 7 7 9 6 10 12 10 10 11 13 12 12 12 11 12 12 11 12 12 13 13 13 13 12 12 12 12 11 11 11 10 10 10 9
7 4 1 1 2 3 2 4 9 9 9 8 6 7 6 7 8 6 8 12 11 9 10 13 14 13 12 11 11 11 11 11 11 12 12 12 12 11 11 11 11 11 11 10 10 10 9 9 8
2 1 1 2 2 3 4 5 8 10 8 8 8 7 6 5 6 9 13 12 11 9 11 13 15 13 12 12 11 11 11 11 11 11 11 11 10 10 10 10 10 10 10 9 9 9 8 8 7
1 1 3 2 2 2 4 6 8 8 5 9 11 8 6 4 13 15 14 13 12 10 10 13 14 13 13 12 11 11 11 10 10 10 10 10 9 9 9 9 9 9 9 9 8 8 7 7 7
1 2 3 2 3 2 4 7 10 12 11 11 10 8 4 7 13 13 13 11 11 11 9 11 13 13 12 12 11 11 11 10 10 9 9 9 9 9 8 8 9 8 8 8 8 7 7 7 6
2 2 1 2 3 4 5 6 9 10 9 8 9 7 5 7 10 12 12 11 10 9 8 7 9 10 12 12 11 11 10 9 9 8 8 8 8 8 8 8 8 8 8 7 7 7 6 7 7
3 2 1 1 3 3 4 5 7 10 8 10 7 8 8 9 11 12 11 10 9 7 6 5 6 7 8 9 10 10 9 9 8 7 7 7 7 7 6 6 7 8 8 7 7 7 7 7 7
2 3 1 3 4 3 5 7 5 7 11 6 5 7 12 15 14 13 11 9 8 7 5 5 5 5 6 7 8 9 9 8 7 6 7 6 5 5 5 5 6 6 7 7 7 7 6 6 6
4 3 5 4 5 6 6 8 6 7 11 9 11 12 14 14 14 14 13 11 9 8 6 5 5 5 6 6 6 6 6 6 6 5 5 4 4 4 4 4 5 5 6 7 7 7 6 5 4
4 5 4 3 5 7 6 5 5 9 8 11 16 16 14 13 12 12 11 10 10 9 8 7 6 6 5 3 5 5 5 5 4 5 5 4 3 3 2 1 2 4 4 4 4 5 4 4 3
2 4 4 4 5 8 7 5 5 6 9 14 16 17 14 14 12 12 11 9 9 8 8 7 7 6 5 4 4 4 4 3 3 4 5 4 2 2 2 1 2 2 3 2 2 3 4 3 4
0 2 1 1 4 7 9 8 7 6 11 15 15 15 14 13 12 11 10 9 9 8 8 7 7 6 5 4 3 4 4 4 5 5 5 5 3 2 2 2 2 2 2 2 2 2 2 2 2
2 3 3 0 4 7 11 7 6 8 12 15 15 12 12 13 12 10 10 9 9 9 8 7 7 7 6 4 3 3 4 4 4 4 5 6 4 3 2 1 1 1 1 2 1 1 1 1 0
1 3 5 1 3 4 8 5 5 9 12 14 13 13 12 11 11 11 11 11 10 9 8 8 8 7 6 5 4 3 4 5 4 4 5 5 5 4 3 1 1 0 1 1 0 1 1 0 0
3 3 2 4 2 3 7 4 5 9 12 12 12 11 10 9 10 10 11 10 9 8 8 8 7 7 6 5 4 3 4 4 4 4 5 5 5 4 3 2 0 1 1 1 1 1 1 1 0
3 0 3 4 2 4 5 5 6 8 10 10 11 11 10 9 9 10 11 11 10 9 9 7 6 7 5 4 3 3 3 3 3 4 4 4 4 4 3 1 1 2 1 1 0 0 0 1 2
5 2 3 5 3 3 4 4 7 10 11 10 10 10 10 10 10 11 11 11 10 9 8 7 6 6 5 4 3 3 2 2 2 3 3 4 4 4 3 2 1 2 1 1 1 0 0 1 2
3 3 5 6 4 2 4 5 7 8 8 9 9 10 10 10 9 9 10 11 10 9 8 7 7 6 5 3 3 3 2 2 2 2 3 4 4 4 3 1 1 1 1 0 1 0 1 1 1
3 3 5 6 2 2 4 4 5 7 10 11 12 11 11 10 8 9 8 9 10 10 9 8 7 7 6 4 3 3 3 2 2 1 2 3 4 3 3 2 1 0 1 1 2 1 1 1 1
4 5 6 5 2 2 4 2 2 4 5 6 8 10 10 11 12 10 10 10 10 10 10 9 8 7 5 4 3 3 3 2 2 1 1 1 3 4 3 2 1 1 1 0 1 1 1 1 1
5 5 4 4 1 2 3 2 6 4 4 7 9 10 11 10 11 11 10 10 11 10 9 8 7 6 5 5 5 5 4 3 3 2 1 1 2 3 3 2 1 1 1 1 1 0 0 1 0
6 5 3 3 2 1 2 2 6 3 5 9 10 11 12 11 12 12 12 12 11 10 9 8 7 6 5 5 5 5 3 2 2 2 2 1 1 1 2 2 1 1 1 1 1 1 1 1 1
3 2 4 4 4 1 4 2 5 5 8 9 10 11 11 10 10 10 10 10 9 9 8 8 8 6 6 6 5 5 5 4 4 2 2 1 1 1 1 2 1 1 1 1 1 1 1 1 1
2 5 4 5 4 5 4 1 7 7 7 10 11 12 11 10 11 10 11 11 11 11 10 9 9 7 6 6 5 5 5 5 5 4 3 2 1 1 2 1 1 1 1 1 1 0 1 2 1
4 8 7 4 4 5 4 2 6 4 3 5 8 9 9 9 9 10 11 12 12 12 10 9 9 8 7 6 5 4 5 4 3 3 3 3 2 2 2 1 1 1 0 0 1 0 1 1 2
3 3 8 7 2 0 4 4 5 2 1 2 4 6 8 8 8 9 11 12 11 11 10 9 9 8 7 6 5 4 4 4 3 3 3 2 2 2 1 2 1 1 1 1 1 1 1 1 1
6 6 6 5 3 2 4 3 4 5 3 3 3 5 8 9 8 8 9 9 9 9 8 7 7 8 7 7 6 5 4 4 3 3 2 2 2 2 2 2 1 1 1 1 1 1 2 1 2
1 3 5 5 5 5 3 6 6 8 6 6 6 7 9 11 10 10 8 8 8 8 8 8 7 7 7 6 5 4 4 4 3 3 3 2 2 2 2 2 2 2 2 1 1 2 1 1 2
5 4 6 4 4 5 5 7 6 6 5 6 6 7 8 9 10 9 8 7 7 7 7 7 6 7 7 6 5 4 4 3 3 3 3 2 2 2 2 2 2 2 2 1 1 2 1 1 2
Wind_Direction
167 163 165 192 50 51 62 85 100 82 64 66 75 83 84 70 96 130 147 142 138 144 148 141 136 131 127 124 122 119 117 117 120 122 124 125 125 127 128 130 134 136 136 139 141 139 139 139 136
162 167 186 37 74 66 46 94 89 90 115 109 86 83 76 70 88 114 129 144 142 146 147 144 140 135 129 126 125 123 122 121 124 125 126 127 129 131 132 133 135 139 141 143 144 144 143 144 143
175 188 188 52 99 130 128 109 106 103 111 100 88 70 71 99 111 125 147 144 139 144 146 148 142 138 134 130 130 129 127 125 127 128 128 129 132 135 138 140 142 145 147 149 150 151 149 150 151
168 164 17 66 106 154 156 142 114 106 86 78 92 72 64 98 119 134 139 137 134 139 145 147 141 140 138 136 133 132 132 130 131 134 134 134 138 140 145 147 149 151 152 153 154 156 157 161 166
157 92 37 40 88 113 136 134 119 104 94 92 93 91 71 69 118 131 136 136 135 137 143 146 141 142 142 140 138 137 135 136 138 140 142 143 145 144 146 152 153 155 158 161 164 168 172 175 177
99 72 64 67 80 101 120 117 103 100 107 108 101 99 93 121 126 135 136 137 136 139 140 146 146 144 144 143 142 142 140 140 139 144 148 149 149 151 155 159 163 166 169 173 176 181 185 189 188
138 100 138 119 94 105 122 119 118 124 125 125 123 103 121 140 139 135 133 132 134 137 138 140 148 148 147 146 144 144 143 144 144 146 152 155 157 161 166 171 173 176 179 183 188 191 199 205 204
176 118 54 101 117 118 126 105 123 129 118 126 123 125 152 162 141 129 125 122 126 131 136 140 144 147 150 152 150 148 148 148 148 150 153 159 163 165 167 173 181 186 188 194 202 205 214 219 219
156 83 171 175 148 139 121 108 101 98 112 114 109 127 147 146 135 128 123 120 127 132 136 139 137 143 154 158 162 158 155 156 158 159 155 155 166 174 178 182 187 193 197 205 217 223 232 237 232
147 159 199 187 157 147 130 126 125 101 103 101 103 115 134 140 138 139 141 145 149 152 155 151 149 150 153 162 163 163 156 158 164 165 159 160 164 172 180 192 199 208 215 220 227 237 250 252 243
169 185 187 167 157 139 131 121 107 122 122 142 141 143 144 143 144 145 151 156 160 161 159 160 161 156 158 161 151 158 157 160 170 170 166 165 166 170 184 181 212 228 230 233 235 247 256 244 227
190 221 200 181 158 140 140 127 110 128 155 154 148 148 149 150 153 154 156 158 158 156 161 162 161 157 163 159 158 156 154 161 165 179 178 166 153 135 140 162 211 222 227 225 240 243 249 251 234
288 287 295 190 124 130 118 118 125 130 138 141 142 147 153 156 159 161 157 154 154 153 158 162 156 160 163 154 157 151 160 166 168 174 177 165 151 147 161 172 194 222 227 221 228 244 275 292 262
259 305 328 83 116 124 121 122 112 141 139 143 149 156 159 162 161 158 156 155 158 159 162 163 157 159 154 152 149 152 162 168 165 171 169 161 156 154 157 164 167 209 219 213 198 223 269 299 307
324 350 341 36 111 124 111 94 140 151 143 151 158 163 165 168 161 160 163 162 164 165 164 164 162 160 156 154 159 152 161 159 157 162 158 157 158 156 149 127 113 155 155 117 105 28 74 53 45
10 36 342 291 128 142 113 164 184 159 151 156 161 161 166 170 162 162 160 159 162 160 161 168 161 160 161 158 159 144 149 151 156 158 152 160 158 141 131 123 110 88 84 82 97 69 5 340 322
8 335 277 289 217 161 137 178 195 171 158 164 163 165 165 163 162 167 165 163 161 160 160 162 151 155 161 157 148 133 133 146 154 150 148 155 139 123 122 128 116 85 75 54 319 137 219 273 280
267 251 270 272 250 139 139 176 183 177 167 172 168 160 160 166 174 172 172 168 162 159 159 159 152 154 149 139 119 108 111 125 133 138 143 142 132 121 108 114 92 83 72 28 309 279 330 258 274
245 272 268 271 249 142 158 177 189 186 172 172 171 167 169 177 176 170 170 169 160 158 157 160 154 158 152 144 140 138 145 154 149 154 148 139 136 126 109 111 105 90 104 243 284 316 359 326 0
266 273 274 287 242 152 170 191 203 194 189 186 179 180 179 176 169 171 171 168 168 166 165 163 164 166 165 167 166 158 149 157 156 150 126 130 129 135 129 121 128 96 53 1 0 28 14 325 33
257 223 237 248 307 76 115 2 246 231 200 188 181 181 184 179 176 176 177 177 169 170 172 172 170 165 166 156 133 118 98 86 93 121 160 158 141 134 121 133 122 91 119 262 319 14 105 358 354
258 249 230 233 133 264 154 205 259 220 206 193 187 182 184 183 177 176 179 177 175 176 171 164 160 157 154 144 142 145 150 162 184 185 185 163 144 139 137 114 132 159 164 203 282 270 194 126 326
229 254 252 241 162 355 337 145 267 189 205 209 196 191 191 187 180 178 178 176 174 170 164 157 151 149 143 144 151 149 152 164 157 154 147 146 153 170 153 130 149 180 196 205 213 212 202 176 183
205 20 356 24 73 320 262 171 265 215 207 203 198 193 190 183 179 175 169 159 164 166 161 156 154 157 152 151 153 155 158 156 149 159 162 171 227 242 203 158 156 186 201 209 213 213 195 197 178
71 87 22 355 7 262 276 178 247 239 210 194 192 193 184 177 173 170 161 162 166 169 168 165 160 162 164 162 167 167 165 159 165 174 176 175 199 222 236 209 187 202 207 192 198 189 228 223 206
213 142 158 201 233 277 324 251 269 268 219 190 183 176 166 161 166 170 170 171 170 168 167 168 169 170 172 170 175 175 168 168 176 178 174 180 197 211 215 200 195 215 205 178 161 180 239 214 222
171 169 167 144 164 2 293 296 321 351 81 167 167 150 161 163 159 170 176 171 168 167 170 170 171 173 173 171 167 164 165 163 168 170 173 180 199 201 192 194 199 207 200 195 165 204 253 251 239
154 155 92 106 157 250 287 271 245 258 224 190 160 156 160 159 159 164 164 162 164 163 160 166 172 176 173 170 174 173 177 174 167 163 177 187 201 205 194 207 203 213 237 245 212 255 272 260 267
359 84 110 123 153 163 235 268 230 208 205 187 182 171 162 158 160 161 157 156 159 160 159 166 168 166 166 172 178 176 180 175 160 165 185 196 208 203 199 202 195 205 226 240 246 270 280 274 283
158 165 141 152 221 173 173 258 269 198 184 169 174 166 153 153 154 153 148 149 151 156 157 158 162 163 168 172 177 183 179 173 173 185 199 198 208 212 206 202 204 218 230 239 244 270 282 258 272
Height
1510 1510 1510 1511 1513 1518 1516 1506 1498 1497 1498 1498 1497 1498 1501 1505 1509 1518 1515 1514 1515 1514 1515 1516 1516 1516 1517 1517 1517 1518 1518 1517 1518 1518 1519 1520 1521 1523 1524 1525 1525 1527 1528 1529 1530 1532 1533 1534 1536
1510 1510 1511 1512 1516 1526 1518 1503 1500 1498 1499 1498 1499 1501 1503 1507 1508 1511 1512 1514 1514 1514 1515 1516 1517 1517 1518 1518 1518 1518 1518 1518 1519 1519 1520 1521 1522 1524 1524 1525 1526 1528 1529 1530 1531 1532 1534 1535 1536
1510 1510 1512 1512 1517 1522 1515 1502 1499 1499 1499 1498 1501 1503 1506 1510 1511 1512 1513 1514 1514 1514 1515 1516 1517 1518 1518 1519 1519 1519 1519 1520 1520 1520 1521 1522 1523 1524 1525 1526 1527 1528 1529 1530 1532 1533 1534 1536 1537
1511 1512 1512 1515 1516 1508 1504 1501 1498 1500 1501 1501 1502 1506 1510 1512 1512 1513 1514 1514 1514 1515 1516 1517 1518 1519 1519 1520 1520 1520 1520 1521 1521 1522 1523 1523 1524 1525 1526 1526 1527 1528 1530 1531 1532 1533 1534 1536 1537
1511 1512 1515 1518 1512 1504 1499 1498 1498 1499 1501 1504 1503 1509 1512 1514 1514 1514 1515 1516 1515 1516 1517 1519 1519 1520 1521 1521 1521 1521 1522 1522 1522 1523 1524 1524 1525 1526 1526 1527 1528 1529 1530 1531 1532 1533 1535 1536 1537
1512 1513 1522 1523 1512 1502 1499 1498 1499 1501 1504 1506 1507 1510 1515 1516 1515 1516 1517 1518 1518 1518 1519 1520 1521 1521 1521 1522 1522 1522 1523 1523 1524 1524 1525 1525 1526 1527 1527 1528 1529 1530 1531 1532 1533 1533 1535 1536 1537
1512 1514 1520 1516 1512 1506 1501 1499 1499 1501 1504 1506 1507 1511 1516 1518 1518 1518 1519 1520 1520 1521 1521 1521 1522 1522 1522 1523 1523 1524 1524 1524 1525 1525 1526 1527 1527 1528 1528 1529 1530 1530 1532 1532 1533 1534 1534 1535 1536
1510 1513 1516 1514 1511 1507 1500 1499 1500 1501 1504 1507 1508 1510 1515 1518 1519 1520 1521 1521 1522 1522 1523 1523 1523 1523 1524 1524 1524 1525 1525 1526 1526 1527 1527 1528 1528 1529 1529 1530 1530 1531 1532 1532 1533 1534 1535 1535 1536
1509 1516 1519 1512 1508 1505 1500 1500 1502 1502 1504 1507 1508 1510 1513 1517 1519 1520 1521 1522 1523 1524 1524 1524 1524 1524 1525 1525 1525 1526 1526 1527 1528 1528 1528 1529 1529 1529 1530 1531 1531 1532 1532 1533 1534 1534 1535 1535 1536
1507 1516 1510 1501 1499 1500 1499 1499 1501 1504 1506 1509 1510 1513 1515 1517 1519 1520 1521 1522 1523 1523 1525 1525 1525 1526 1526 1526 1527 1527 1527 1528 1528 1529 1529 1529 1530 1530 1531 1531 1532 1532 1533 1533 1534 1534 1535 1535 1535
1503 1506 1499 1497 1497 1497 1499 1499 1501 1504 1508 1508 1509 1513 1516 1518 1519 1520 1521 1522 1523 1524 1525 1525 1526 1527 1527 1527 1528 1528 1528 1529 1529 1530 1530 1530 1530 1531 1532 1532 1532 1533 1533 1534 1534 1534 1534 1535 1535
1501 1498 1497 1497 1496 1497 1498 1499 1502 1503 1506 1507 1509 1512 1515 1517 1519 1520 1521 1523 1524 1524 1525 1526 1526 1527 1528 1528 1528 1529 1529 1530 1530 1530 1530 1531 1531 1532 1532 1532 1533 1533 1534 1534 1534 1534 1535 1535 1535
1499 1497 1496 1496 1496 1496 1498 1499 1501 1504 1506 1508 1511 1513 1515 1517 1518 1520 1521 1523 1524 1524 1525 1526 1527 1527 1528 1528 1529 1529 1530 1530 1531 1531 1531 1532 1532 1532 1533 1533 1533 1533 1533 1533 1533 1534 1534 1534 1534
1498 1497 1495 1495 1496 1497 1498 1501 1502 1506 1507 1509 1511 1513 1515 1516 1518 1519 1521 1522 1523 1524 1525 1526 1527 1528 1528 1529 1529 1530 1530 1531 1532 1532 1532 1532 1533 1533 1533 1533 1533 1533 1533 1533 1533 1533 1533 1533 1533
1497 1498 1496 1495 1496 1499 1500 1506 1504 1506 1508 1510 1511 1513 1515 1516 1517 1519 1520 1522 1523 1524 1525 1526 1527 1528 1529 1529 1530 1530 1531 1531 1532 1532 1533 1533 1533 1533 1534 1533 1533 1533 1533 1533 1532 1532 1532 1532 1532
1499 1504 1510 1498 1495 1499 1504 1516 1505 1506 1507 1509 1511 1513 1515 1516 1517 1519 1520 1521 1523 1524 1525 1526 1527 1528 1529 1530 1530 1531 1531 1532 1532 1533 1533 1533 1534 1534 1534 1533 1533 1533 1533 1532 1532 1531 1531 1530 1530
1509 1517 1513 1503 1494 1496 1502 1511 1505 1506 1507 1508 1509 1511 1514 1515 1517 1518 1519 1520 1522 1523 1524 1525 1526 1527 1528 1529 1530 1531 1532 1532 1533 1533 1533 1533 1534 1534 1534 1533 1533 1533 1532 1532 1531 1530 1530 1529 1528
1518 1515 1512 1507 1495 1496 1502 1504 1502 1503 1504 1506 1507 1509 1511 1513 1515 1516 1517 1519 1520 1522 1523 1525 1526 1527 1528 1529 1530 1531 1532 1532 1533 1533 1533 1533 1533 1533 1533 1532 1532 1532 1532 1531 1530 1529 1529 1528 1527
1504 1508 1510 1502 1492 1497 1502 1503 1501 1502 1503 1504 1505 1507 1509 1511 1513 1514 1516 1517 1519 1521 1522 1524 1525 1526 1527 1528 1529 1530 1531 1531 1532 1532 1532 1532 1533 1533 1533 1532 1532 1532 1531 1530 1530 1529 1528 1527 1527
1501 1508 1507 1499 1491 1497 1503 1503 1500 1500 1501 1500 1501 1504 1506 1508 1511 1512 1514 1515 1517 1519 1520 1523 1524 1525 1527 1528 1528 1529 1530 1531 1532 1532 1532 1532 1532 1532 1531 1531 1531 1531 1530 1530 1529 1529 1528 1527 1526
1501 1505 1504 1502 1495 1495 1502 1511 1506 1501 1500 1501 1500 1501 1503 1505 1507 1510 1512 1513 1515 1517 1519 1521 1523 1524 1526 1527 1528 1529 1529 1530 1530 1531 1531 1531 1531 1531 1530 1530 1530 1530 1530 1529 1528 1528 1527 1527 1526
1503 1492 1493 1495 1505 1513 1507 1528 1512 1503 1501 1499 1498 1499 1501 1504 1505 1507 1509 1511 1513 1516 1518 1520 1522 1523 1525 1526 1527 1527 1527 1528 1529 1530 1530 1530 1530 1530 1529 1529 1529 1528 1528 1527 1527 1527 1526 1526 1525
1491 1485 1490 1494 1504 1514 1511 1522 1516 1503 1505 1499 1496 1496 1497 1499 1502 1503 1505 1508 1511 1514 1517 1519 1521 1522 1524 1525 1526 1526 1526 1527 1528 1528 1529 1529 1529 1529 1528 1528 1527 1527 1527 1526 1526 1526 1525 1524 1524
1481 1487 1493 1501 1512 1528 1516 1521 1521 1506 1499 1494 1493 1494 1495 1497 1499 1501 1504 1507 1510 1513 1515 1517 1519 1521 1522 1523 1524 1525 1525 1526 1526 1527 1527 1528 1528 1528 1527 1527 1526 1526 1525 1525 1524 1524 1523 1522 1522
1484 1505 1526 1529 1537 1533 1513 1516 1514 1492 1487 1488 1489 1490 1491 1494 1497 1500 1502 1505 1508 1510 1513 1515 1517 1518 1520 1521 1522 1523 1524 1525 1525 1525 1526 1526 1526 1526 1525 1525 1525 1524 1523 1523 1522 1522 1522 1521 1521
1487 1500 1527 1539 1542 1532 1516 1518 1503 1486 1484 1484 1485 1487 1489 1492 1495 1498 1499 1502 1505 1507 1510 1513 1515 1516 1518 1519 1520 1522 1523 1523 1523 1524 1524 1524 1524 1524 1524 1524 1523 1522 1522 1521 1521 1520 1520 1519 1518
1487 1496 1499 1518 1524 1532 1524 1510 1497 1486 1485 1484 1485 1486 1488 1490 1492 1495 1498 1500 1503 1505 1508 1510 1512 1514 1515 1517 1518 1520 1521 1521 1521 1522 1522 1522 1522 1522 1522 1522 1521 1520 1520 1519 1519 1518 1517 1517 1516
1477 1485 1503 1519 1534 1540 1527 1518 1513 1496 1490 1486 1485 1486 1486 1488 1490 1493 1495 1498 1501 1503 1506 1508 1510 1512 1514 1515 1516 1517 1518 1518 1519 1520 1520 1520 1520 1520 1520 1519 1519 1518 1518 1517 1516 1515 1515 1514 1513
1483 1489 1500 1514 1521 1536 1539 1525 1491 1488 1485 1484 1484 1483 1483 1485 1489 1492 1494 1498 1500 1503 1504 1506 1507 1508 1511 1513 1514 1515 1516 1516 1517 1517 1517 1517 1517 1517 1517 1516 1516 1515 1515 1514 1514 1513 1512 1511 1511
1476 1485 1496 1514 1519 1521 1528 1518 1481 1481 1480 1481 1482 1482 1483 1485 1488 1492 1494 1497 1499 1500 1502 1504 1506 1506 1508 1510 1512 1512 1513 1514 1514 1514 1515 1515 1515 1515 1514 1514 1513 1513 1512 1512 1511 1510 1509 1509 1508